sat.trackr.live / text

‹ back to catalog

STARLINK-34375

NORAD 64477 · 2025-133F

PAYLOAD ACTIVE UNKNOWN

§ Identity

Operator
Country
US
Launch date
2025-06-23
Launch site
AFETR
Launch vehicle
Mass (kg)
RCS (m²)

Purposes: comms

External: N2YO · Heavens-Above · Gunter

§ Orbital elements

Epoch: 2026-09-20T06:29:15.634176Z

Period
93.85 min
Inclination
53.1605°
Eccentricity
0.0002116
Mean motion
15.34402599 rev/d
Perigee alt
461.2 km
Apogee alt
464.1 km
Semi-major
6,840.8 km
B*
3.7822e-4
RAAN
287.0294°
Arg perigee
68.5349°
Mean anomaly
291.5879°
Rev number
7,106

§ Raw data

STARLINK-343751 64477U 25133F   26263.27031984  .00012425  00000+0  37822-3 0  99932 64477  53.1605 287.0294 0002116  68.5349 291.5879 15.34402599 71064

JSON: /api/v1/satellites/64477 · /tle

For live sub-satellite position, see the globe view (requires WebGL).

§ Visibility from observer

Set your observer location to see the next 7 days of passes ≥ 10°. The values pass through the URL so the page stays shareable.

No JS? Fill the form by hand. The geolocation button needs JavaScript.